Regional Weather Roundup
Issued by NWS Northern Indiana

Home | Current Version | Previous Version | Graphics & Text | Print | Product List | Glossary On
Versions: 1 2 3 4 5 6 7 8 9 10 11 12 13 14 15 16 17 18 19 20 21 22 23 24 25 26 27 28 29 30 31 32 33 34 35 36 37 38 39 40 41 42 43 44 45 46 47 48 49 50
000
ASUS43 KIWX 182110
RWRIWX

KIWX WEATHER ROUNDUP
NATIONAL WEATHER SERVICE NORTHERN INDIANA
500 PM EDT WED APR 18 2018

NOTE: "FAIR" INDICATES FEW OR NO CLOUDS BELOW 12,000 FEET WITH NO
SIGNIFICANT WEATHER AND/OR OBSTRUCTIONS TO VISIBILITY.

* THESE STATIONS ARE NOT UNDER NWS QUALITY CONTROL. THEY ALSO MAY NOT
  REPORT WEATHER SUCH AS PRECIPITATION OR FOG.

INZ001>027-182200-
NORTHERN INDIANA

CITY           SKY/WX    TMP DP  RH WIND       PRES   REMARKS
GARY*          CLOUDY    37  30  75 NE16      29.77F
VALPARAISO     CLOUDY    41  31  67 E8        29.75F
MICHIGAN CITY* CLOUDY    39  32  75 E5        29.77S
LAPORTE*       CLOUDY    39  32  77 NE6       29.76S
KNOX*          CLOUDY    39  32  75 E8        29.75S
SOUTH BEND     LGT RAIN  38  33  82 E8        29.77R
ELKHART*       LGT RAIN N/A N/A N/A CALM      29.77R
GOSHEN         LGT RAIN  40  32  73 E7        29.76R
MONTICELLO*    CLOUDY    44  32  61 E7        29.70R
LOGANSPORT*    CLOUDY    45  34  65 E10       29.70F
ROCHESTER*     CLOUDY    43  34  70 E12       29.72F
WARSAW*        LGT RAIN  37  34  87 E8        29.74R
AUBURN*        CLOUDY    41  32  70 E6        29.75F
FORT WAYNE     LGT RAIN  41  35  79 E13       29.75F
HUNTINGTON*    CLOUDY    42  35  75 E7        29.73S
PERU/GRISSOM   CLOUDY    46  37  70 E16       29.68F
MARION*        CLOUDY    47  37  66 NE14      29.71S

$$
INZ028>050-182200-
CENTRAL INDIANA

CITY           SKY/WX    TMP DP  RH WIND       PRES   REMARKS
LAFAYETTE      CLOUDY    48  38  68 NE8       29.69R
KOKOMO*        CLOUDY    46  37  71 E17       29.69F
MUNCIE*        CLOUDY    58  42  55 E9        29.68F
INDIANAPOLIS   PTSUNNY   70  51  51 W13       29.62F

$$
MIZ043>046-050>051-056>058-064>065-071>073-077>080-182200-
SOUTHWEST LOWER MICHIGAN

CITY           SKY/WX    TMP DP  RH WIND       PRES   REMARKS
BATTLE CREEK   CLOUDY    43  29  57 E9        29.72F
BENTON HARBOR  CLOUDY    40  32  73 CALM      29.77R
COLDWATER*     CLOUDY    42  30  64 E12       29.73S
HILLSDALE*     LGT RAIN  39  30  70 E10       29.73S
HOLLAND        LGT RAIN  41  30  65 E12G31    29.77S
GRAND RAPIDS   CLOUDY    40  29  64 E14       29.77S
KALAMAZOO      LGT RAIN  42  29  59 E6        29.75F
STURGIS*       CLOUDY    41  32  69 SW7       29.78R
THREE RIVERS*  LGT RAIN  42  32  68 CALM      29.78R

$$
OHZ001>008-015>018-024>025-182200-
NORTHWEST OHIO

CITY           SKY/WX    TMP DP  RH WIND       PRES   REMARKS
WAUSEON*       CLOUDY    43  32  65 E9        29.76F
DEFIANCE       CLOUDY    41  33  73 E9        29.76F
FINDLAY        LGT RAIN  46  30  53 NE10      29.75R
TOLEDO EXPRESS CLOUDY    41  30  65 E13       29.77R
TOLEDO METCALF CLOUDY    39  28  64 NE10      29.80R
LIMA           CLOUDY    48  37  65 E8        29.74R

$$
AND FOR LAKE MICHIGAN COASTAL AND OPEN LAKE BUOY OBSERVATIONS

STATION/POSITION TEMP    WIND        PRES    VSBY  WAVE
                 AIR SEA DIR/SP/G                  HT/PER
                 (F)     (DEG/KT/KT) (MB)    (MI)  (FT/S)
CALUMET HARBOR    35      20/ 14/ 19 1007.9F
MICHIGAN CITY     39      50/  5/  5   N/A
BURNS HARBOR      36      30/ 15/ 17 1008.5F
SAINT JOSEPH      39     120/  1/  6 1009.1

$$
&&




USA.gov is the U.S. government's official web portal to all federal, state and local government web resources and services.